Time,TemperatureF,DewpointF,PressureIn,WindDirection,WindDirectionDegrees,WindSpeedMPH,WindSpeedGustMPH,Humidity,HourlyPrecipIn,Conditions,Clouds,dailyrainin,SoftwareType,DateUTC
2013-06-27 00:33:00,71.0,69.0,29.94,NW,314,1.0,-999.0,94,-99.99,,,-99.99,,2013-06-27 04:33:00,
2013-06-27 00:42:00,71.0,69.0,29.94,NW,314,1.0,-999.0,94,-99.99,,,-99.99,,2013-06-27 04:42:00,
2013-06-27 01:02:00,71.0,69.0,29.96,NW,308,1.0,-999.0,94,-99.99,,,-99.99,,2013-06-27 05:02:00,
2013-06-27 01:12:00,71.0,69.0,29.96,NW,308,1.0,-999.0,94,-99.99,,,-99.99,,2013-06-27 05:12:00,
2013-06-27 01:22:00,71.0,69.0,29.96,NW,308,1.0,-999.0,94,-99.99,,,-99.99,,2013-06-27 05:22:00,
2013-06-27 01:32:00,71.0,69.0,29.96,NW,308,1.0,-999.0,94,-99.99,,,-99.99,,2013-06-27 05:32:00,
2013-06-27 02:34:00,70.0,69.0,29.93,WNW,301,1.0,-999.0,96,-99.99,,,-99.99,,2013-06-27 06:34:00,
2013-06-27 02:43:00,70.0,69.0,29.93,WNW,301,1.0,-999.0,96,-99.99,,,-99.99,,2013-06-27 06:43:00,
2013-06-27 02:53:00,70.0,69.0,29.93,WNW,301,1.0,-999.0,96,-99.99,,,-99.99,,2013-06-27 06:53:00,
2013-06-27 03:02:00,70.0,69.0,29.93,NW,322,1.0,-999.0,97,-99.99,,,-99.99,,2013-06-27 07:02:00,
2013-06-27 03:12:00,70.0,69.0,29.93,NW,322,1.0,-999.0,97,-99.99,,,-99.99,,2013-06-27 07:12:00,
2013-06-27 03:22:00,70.0,69.0,29.93,NW,322,1.0,-999.0,97,-99.99,,,-99.99,,2013-06-27 07:22:00,
2013-06-27 03:33:00,69.0,68.0,29.93,NNW,327,2.0,-999.0,97,-99.99,,,-99.99,,2013-06-27 07:33:00,
2013-06-27 03:43:00,69.0,68.0,29.93,NNW,327,2.0,-999.0,97,-99.99,,,-99.99,,2013-06-27 07:43:00,
2013-06-27 03:52:00,70.0,69.0,29.91,NW,305,3.0,-999.0,96,-99.99,,,-99.99,,2013-06-27 07:52:00,
2013-06-27 04:01:00,70.0,69.0,29.91,NW,305,3.0,-999.0,96,-99.99,,,-99.99,,2013-06-27 08:01:00,
2013-06-27 04:11:00,70.0,69.0,29.91,NW,305,3.0,-999.0,96,-99.99,,,-99.99,,2013-06-27 08:11:00,
2013-06-27 04:34:00,70.0,69.0,29.90,NW,319,3.0,-999.0,96,-99.99,,,-99.99,,2013-06-27 08:34:00,
2013-06-27 04:44:00,70.0,69.0,29.90,NW,319,3.0,-999.0,96,-99.99,,,-99.99,,2013-06-27 08:44:00,
2013-06-27 04:52:00,70.0,69.0,29.90,NNW,348,3.0,-999.0,96,-99.99,,,-99.99,,2013-06-27 08:52:00,
2013-06-27 05:02:00,70.0,69.0,29.90,NNW,348,3.0,-999.0,96,-99.99,,,-99.99,,2013-06-27 09:02:00,
2013-06-27 05:11:00,70.0,69.0,29.90,NNW,348,3.0,-999.0,96,-99.99,,,-99.99,,2013-06-27 09:11:00,
2013-06-27 05:22:00,70.0,69.0,29.90,NNW,348,3.0,-999.0,96,-99.99,,,-99.99,,2013-06-27 09:22:00,
2013-06-27 05:34:00,69.0,68.0,29.90,WNW,289,2.0,-999.0,97,-99.99,,,-99.99,,2013-06-27 09:34:00,
2013-06-27 05:43:00,69.0,68.0,29.90,WNW,289,2.0,-999.0,97,-99.99,,,-99.99,,2013-06-27 09:43:00,
2013-06-27 05:53:00,69.0,68.0,29.90,North,359,2.0,-999.0,97,-99.99,,,-99.99,,2013-06-27 09:53:00,
2013-06-27 06:01:00,69.0,68.0,29.90,North,359,2.0,-999.0,97,-99.99,,,-99.99,,2013-06-27 10:01:00,
2013-06-27 06:11:00,69.0,68.0,29.90,North,359,2.0,-999.0,97,-99.99,,,-99.99,,2013-06-27 10:11:00,
2013-06-27 06:32:00,68.0,67.0,29.89,WNW,303,3.0,-999.0,97,-99.99,,,-99.99,,2013-06-27 10:32:00,
2013-06-27 06:44:00,68.0,67.0,29.89,WNW,303,3.0,-999.0,97,-99.99,,,-99.99,,2013-06-27 10:44:00,
2013-06-27 07:02:00,68.0,67.0,29.89,NW,316,3.0,-999.0,97,-99.99,,,-99.99,,2013-06-27 11:02:00,
2013-06-27 07:12:00,68.0,67.0,29.89,NW,316,3.0,-999.0,97,-99.99,,,-99.99,,2013-06-27 11:12:00,
2013-06-27 07:22:00,68.0,67.0,29.89,NW,316,3.0,-999.0,97,-99.99,,,-99.99,,2013-06-27 11:22:00,
2013-06-27 07:33:00,68.0,67.0,29.89,WNW,298,3.0,-999.0,97,-99.99,,,-99.99,,2013-06-27 11:33:00,
2013-06-27 07:43:00,68.0,67.0,29.89,WNW,298,3.0,-999.0,97,-99.99,,,-99.99,,2013-06-27 11:43:00,
2013-06-27 08:02:00,68.0,67.0,29.90,WNW,302,2.0,-999.0,97,-99.99,,,-99.99,,2013-06-27 12:02:00,
2013-06-27 08:11:00,68.0,67.0,29.90,WNW,302,2.0,-999.0,97,-99.99,,,-99.99,,2013-06-27 12:11:00,
2013-06-27 08:34:00,68.0,67.0,29.90,NW,304,2.0,-999.0,97,-99.99,,,-99.99,,2013-06-27 12:34:00,
2013-06-27 08:42:00,68.0,67.0,29.90,NW,304,2.0,-999.0,97,-99.99,,,-99.99,,2013-06-27 12:42:00,
2013-06-27 09:01:00,68.0,67.0,29.91,WNW,303,3.0,-999.0,98,-99.99,,,-99.99,,2013-06-27 13:01:00,
2013-06-27 09:11:00,68.0,67.0,29.91,WNW,303,3.0,-999.0,98,-99.99,,,-99.99,,2013-06-27 13:11:00,
2013-06-27 09:34:00,68.0,67.0,29.91,NW,308,2.0,-999.0,98,-99.99,,,-99.99,,2013-06-27 13:34:00,
2013-06-27 09:43:00,68.0,67.0,29.91,NW,308,2.0,-999.0,98,-99.99,,,-99.99,,2013-06-27 13:43:00,
2013-06-27 10:02:00,68.0,67.0,29.91,NW,312,2.0,-999.0,98,-99.99,,,-99.99,,2013-06-27 14:02:00,
2013-06-27 10:11:00,68.0,67.0,29.91,NW,312,2.0,-999.0,98,-99.99,,,-99.99,,2013-06-27 14:11:00,
2013-06-27 10:22:00,68.0,67.0,29.91,NW,312,2.0,-999.0,98,-99.99,,,-99.99,,2013-06-27 14:22:00,
2013-06-27 10:33:00,68.0,67.0,29.91,West,280,1.0,-999.0,98,-99.99,,,-99.99,,2013-06-27 14:33:00,
2013-06-27 10:43:00,68.0,67.0,29.91,West,280,1.0,-999.0,98,-99.99,,,-99.99,,2013-06-27 14:43:00,
2013-06-27 10:52:00,70.0,69.0,29.90,West,281,1.0,-999.0,97,-99.99,,,-99.99,,2013-06-27 14:52:00,
2013-06-27 11:12:00,70.0,69.0,29.90,West,281,1.0,-999.0,97,-99.99,,,-99.99,,2013-06-27 15:12:00,
2013-06-27 11:22:00,70.0,69.0,29.90,West,281,1.0,-999.0,97,-99.99,,,-99.99,,2013-06-27 15:22:00,
2013-06-27 11:33:00,70.0,69.0,29.91,WNW,295,2.0,-999.0,96,-99.99,,,-99.99,,2013-06-27 15:33:00,
2013-06-27 11:42:00,70.0,69.0,29.91,WNW,295,2.0,-999.0,96,-99.99,,,-99.99,,2013-06-27 15:42:00,
2013-06-27 12:02:00,67.0,66.0,29.91,ESE,102,2.0,-999.0,97,-99.99,,,-99.99,,2013-06-27 16:02:00,
2013-06-27 12:11:00,67.0,66.0,29.91,ESE,102,2.0,-999.0,97,-99.99,,,-99.99,,2013-06-27 16:11:00,
2013-06-27 12:34:00,67.0,66.0,29.90,WNW,303,2.0,-999.0,98,-99.99,,,-99.99,,2013-06-27 16:34:00,
2013-06-27 12:43:00,67.0,66.0,29.90,WNW,303,2.0,-999.0,98,-99.99,,,-99.99,,2013-06-27 16:43:00,
2013-06-27 12:53:00,67.0,66.0,29.90,WNW,303,2.0,-999.0,98,-99.99,,,-99.99,,2013-06-27 16:53:00,
2013-06-27 13:02:00,68.0,67.0,29.89,WNW,303,2.0,-999.0,97,-99.99,,,-99.99,,2013-06-27 17:02:00,
2013-06-27 13:11:00,68.0,67.0,29.89,WNW,303,2.0,-999.0,97,-99.99,,,-99.99,,2013-06-27 17:11:00,
2013-06-27 13:22:00,68.0,67.0,29.89,WNW,303,2.0,-999.0,97,-99.99,,,-99.99,,2013-06-27 17:22:00,
2013-06-27 13:33:00,68.0,67.0,29.89,NW,315,2.0,-999.0,98,-99.99,,,-99.99,,2013-06-27 17:33:00,
2013-06-27 13:43:00,68.0,67.0,29.89,NW,315,2.0,-999.0,98,-99.99,,,-99.99,,2013-06-27 17:43:00,
2013-06-27 14:01:00,68.0,67.0,29.88,West,268,1.0,-999.0,98,-99.99,,,-99.99,,2013-06-27 18:01:00,
2013-06-27 14:12:00,68.0,67.0,29.88,West,268,1.0,-999.0,98,-99.99,,,-99.99,,2013-06-27 18:12:00,
2013-06-27 14:32:00,69.0,68.0,29.88,WNW,291,1.0,-999.0,98,-99.99,,,-99.99,,2013-06-27 18:32:00,
2013-06-27 14:44:00,69.0,68.0,29.88,WNW,291,1.0,-999.0,98,-99.99,,,-99.99,,2013-06-27 18:44:00,
2013-06-27 14:52:00,69.0,68.0,29.88,WNW,291,1.0,-999.0,98,-99.99,,,-99.99,,2013-06-27 18:52:00,
2013-06-27 15:01:00,69.0,68.0,29.87,NW,321,1.0,-999.0,98,-99.99,,,-99.99,,2013-06-27 19:01:00,
2013-06-27 15:11:00,69.0,68.0,29.87,NW,321,1.0,-999.0,98,-99.99,,,-99.99,,2013-06-27 19:11:00,
2013-06-27 15:34:00,70.0,69.0,29.87,West,276,1.0,-999.0,98,-99.99,,,-99.99,,2013-06-27 19:34:00,
2013-06-27 15:42:00,70.0,69.0,29.87,West,276,1.0,-999.0,98,-99.99,,,-99.99,,2013-06-27 19:42:00,
2013-06-27 15:53:00,70.0,69.0,29.87,West,276,1.0,-999.0,98,-99.99,,,-99.99,,2013-06-27 19:53:00,
2013-06-27 16:02:00,70.0,69.0,29.86,West,274,1.0,-999.0,98,-99.99,,,-99.99,,2013-06-27 20:02:00,
2013-06-27 16:11:00,70.0,69.0,29.86,West,274,1.0,-999.0,98,-99.99,,,-99.99,,2013-06-27 20:11:00,
2013-06-27 16:49:00,71.0,71.0,29.85,West,274,0.0,-999.0,99,-99.99,,,-99.99,,2013-06-27 20:49:00,
2013-06-27 16:56:00,71.0,71.0,29.85,West,274,0.0,-999.0,99,-99.99,,,-99.99,,2013-06-27 20:56:00,
2013-06-27 17:06:00,72.0,72.0,29.84,West,272,0.0,-999.0,99,-99.99,,,-99.99,,2013-06-27 21:06:00,
2013-06-27 17:15:00,72.0,72.0,29.84,West,272,0.0,-999.0,99,-99.99,,,-99.99,,2013-06-27 21:15:00,
2013-06-27 17:36:00,72.0,72.0,29.83,West,272,0.0,-999.0,99,-99.99,,,-99.99,,2013-06-27 21:36:00,
2013-06-27 17:49:00,72.0,72.0,29.83,West,272,0.0,-999.0,99,-99.99,,,-99.99,,2013-06-27 21:49:00,
2013-06-27 17:56:00,72.0,72.0,29.83,West,272,0.0,-999.0,99,-99.99,,,-99.99,,2013-06-27 21:56:00,
2013-06-27 18:06:00,72.0,71.0,29.82,West,272,1.0,-999.0,98,-99.99,,,-99.99,,2013-06-27 22:06:00,
2013-06-27 18:16:00,72.0,71.0,29.82,West,272,1.0,-999.0,98,-99.99,,,-99.99,,2013-06-27 22:16:00,
2013-06-27 18:35:00,73.0,72.0,29.81,WNW,294,1.0,-999.0,97,-99.99,,,-99.99,,2013-06-27 22:35:00,
2013-06-27 18:49:00,73.0,72.0,29.81,WNW,294,1.0,-999.0,97,-99.99,,,-99.99,,2013-06-27 22:49:00,
2013-06-27 18:58:00,73.0,72.0,29.82,West,276,1.0,-999.0,97,-99.99,,,-99.99,,2013-06-27 22:58:00,
2013-06-27 19:05:00,73.0,72.0,29.82,West,276,1.0,-999.0,97,-99.99,,,-99.99,,2013-06-27 23:05:00,
2013-06-27 19:16:00,73.0,72.0,29.82,West,276,1.0,-999.0,97,-99.99,,,-99.99,,2013-06-27 23:16:00,
2013-06-27 19:35:00,73.0,72.0,29.82,NNW,338,1.0,-999.0,96,-99.99,,,-99.99,,2013-06-27 23:35:00,
2013-06-27 19:48:00,73.0,72.0,29.82,NNW,338,1.0,-999.0,96,-99.99,,,-99.99,,2013-06-27 23:48:00,
2013-06-27 20:07:00,72.0,71.0,29.83,NNW,341,1.0,-999.0,96,-99.99,,,-99.99,,2013-06-28 00:07:00,
2013-06-27 20:15:00,72.0,71.0,29.83,NNW,341,1.0,-999.0,96,-99.99,,,-99.99,,2013-06-28 00:15:00,
2013-06-27 20:29:00,72.0,71.0,29.83,NNW,340,1.0,-999.0,97,-99.99,,,-99.99,,2013-06-28 00:29:00,
2013-06-27 20:46:00,72.0,71.0,29.83,NNW,340,1.0,-999.0,97,-99.99,,,-99.99,,2013-06-28 00:46:00,
2013-06-27 20:56:00,72.0,71.0,29.81,NNW,341,0.0,-999.0,96,-99.99,,,-99.99,,2013-06-28 00:56:00,
2013-06-27 21:08:00,72.0,71.0,29.81,NNW,341,0.0,-999.0,96,-99.99,,,-99.99,,2013-06-28 01:08:00,
2013-06-27 21:14:00,72.0,71.0,29.81,NNW,341,0.0,-999.0,96,-99.99,,,-99.99,,2013-06-28 01:14:00,
2013-06-27 21:26:00,72.0,71.0,29.81,NNW,341,0.0,-999.0,96,-99.99,,,-99.99,,2013-06-28 01:26:00,
2013-06-27 21:35:00,72.0,71.0,29.82,SSE,149,0.0,-999.0,96,-99.99,,,-99.99,,2013-06-28 01:35:00,
2013-06-27 21:49:00,72.0,71.0,29.82,SSE,149,0.0,-999.0,96,-99.99,,,-99.99,,2013-06-28 01:49:00,
2013-06-27 21:58:00,72.0,71.0,29.82,SSE,149,0.0,-999.0,96,-99.99,,,-99.99,,2013-06-28 01:58:00,
2013-06-27 22:07:00,71.0,70.0,29.83,South,183,0.0,-999.0,97,-99.99,,,-99.99,,2013-06-28 02:07:00,
2013-06-27 22:36:00,71.0,68.0,29.84,South,172,0.0,-999.0,91,-99.99,,,-99.99,,2013-06-28 02:36:00,
2013-06-27 22:50:00,71.0,68.0,29.84,South,172,0.0,-999.0,91,-99.99,,,-99.99,,2013-06-28 02:50:00,
2013-06-27 23:07:00,73.0,69.0,29.85,West,270,1.0,-999.0,86,-99.99,,,-99.99,,2013-06-28 03:07:00,
2013-06-27 23:14:00,73.0,69.0,29.85,West,270,1.0,-999.0,86,-99.99,,,-99.99,,2013-06-28 03:14:00,
2013-06-27 23:37:00,73.0,69.0,29.85,SE,143,0.0,-999.0,87,-99.99,,,-99.99,,2013-06-28 03:37:00,
2013-06-27 23:46:00,73.0,69.0,29.85,SE,143,0.0,-999.0,87,-99.99,,,-99.99,,2013-06-28 03:46:00,